Vertical_Velocity
-2 -2 -2 -2 -2 -2 -1 -1 -2 -2 -3 -3 -3 -3 -2 -2 -1 -1 -1 -2 -3 -3 -2 -2 -1 -1 -1 -1 -2 -2 -2 -1 -1 -0 -1 -1 -2 -2 -1 -1 -1 -1 -1 -1 -1 -1 -1 -1 -1 -1 -1 -2 -2 -2 -2 -3 -2 -1 -1 -1 -1 -1 -1 -1 -0 -0 0 0 -1
-2 -1 -1 -1 -1 -1 -1 -1 -1 -1 -2 -2 -2 -3 -3 -2 -2 -2 -2 -2 -2 -3 -2 -2 -1 -1 -1 -1 -1 -2 -2 -2 -1 -1 -0 -1 -1 -1 -1 -1 -1 -1 -1 -1 -1 -1 -1 -1 -1 -1 -1 -2 -1 -1 -2 -2 -2 -2 -2 -1 -1 -1 -1 -1 -1 -0 -0 0 -0
-1 -1 -1 -0 -1 -1 -1 -1 -1 -1 -1 -2 -2 -2 -3 -3 -2 -2 -2 -1 -2 -2 -2 -2 -2 -1 -1 -1 -1 -2 -2 -2 -2 -2 -1 -1 -1 -1 -1 -1 -1 -1 -1 -1 -1 -1 -1 -1 -1 -2 -2 -2 -1 -1 -1 -2 -2 -3 -3 -3 -2 -2 -2 -1 -1 -1 -1 -0 -0
-1 -1 -1 -1 -1 -1 -1 -2 -2 -2 -2 -1 -2 -2 -2 -2 -2 -2 -1 -1 -1 -1 -2 -2 -2 -2 -2 -2 -2 -2 -2 -2 -2 -2 -2 -1 -1 -0 -0 -0 -0 -0 -0 -1 -1 -1 -1 -1 -2 -2 -2 -2 -2 -2 -2 -2 -3 -4 -4 -4 -3 -2 -2 -2 -1 -1 -1 0 0
-0 -0 -0 -0 -1 -1 -1 -2 -2 -2 -2 -2 -2 -2 -2 -2 -2 -2 -1 -1 -1 -1 -1 -2 -2 -2 -2 -2 -2 -1 -1 -1 -2 -2 -2 -1 -1 -0 0 0 0 -0 -0 -0 -0 -0 -1 -1 -1 -1 -1 -1 -1 -2 -2 -3 -5 -5 -6 -5 -3 -2 -1 -1 -1 -0 -0 0 1
-1 -1 -1 -1 -1 -1 -1 -1 -1 -2 -2 -2 -2 -2 -2 -2 -2 -2 -1 -1 -1 -1 -1 -1 -1 -2 -1 -1 -1 -1 -1 -1 -1 -2 -2 -2 -1 -0 0 1 1 0 0 0 0 0 -0 -1 -0 -0 -1 -1 -1 -1 -2 -5 -7 -7 -6 -4 -1 -0 0 0 0 0 0 1 2
-1 -1 -1 -1 -1 -1 -1 -1 -1 -1 -1 -1 -1 -1 -1 -1 -1 -1 -1 -1 -1 -1 -1 -1 -1 -1 -2 -1 -1 -1 -1 -1 -1 -1 -1 -2 -1 -1 0 1 1 1 1 1 1 1 0 -0 -1 -1 -1 -2 -2 -2 -3 -5 -7 -7 -5 -2 0 1 0 0 -0 0 0 1 2
-1 -1 -1 -1 -1 -1 -1 -1 -1 -1 -1 -1 -1 -1 -1 -1 -1 -1 -1 -1 -1 -1 -2 -1 -1 -1 -1 -2 -1 -1 -1 -1 -1 -1 -1 -1 -1 -1 0 1 1 2 2 2 2 2 1 -0 -0 -1 -1 -2 -3 -3 -4 -5 -6 -5 -4 -2 -1 -0 -0 -0 -1 -0 0 1 1
-0 -0 -0 -0 -1 -1 -0 -0 -0 -1 -1 -1 -1 -1 -1 -1 -1 -1 -1 -1 -1 -1 -1 -2 -1 -1 -1 -1 -1 -1 -1 -1 -1 -1 -1 -1 -1 -1 -0 1 2 2 3 4 4 3 1 1 0 -1 -2 -3 -4 -4 -5 -5 -5 -5 -4 -4 -3 -1 -0 -0 -1 -0 -0 0 1
-0 -0 -1 -1 -1 -1 -0 0 0 0 0 -0 0 0 0 -0 -1 -1 -1 -1 -0 -0 -1 -1 -1 -1 -1 -1 -1 -1 -1 -1 -1 -1 -1 -1 -1 -1 -1 0 1 2 3 5 6 5 3 1 -0 -1 -2 -3 -3 -4 -5 -6 -6 -6 -5 -4 -3 -1 0 1 -0 -0 -0 0 1
-1 -1 -1 -1 -1 -1 -1 -0 0 1 1 0 0 0 1 0 0 0 0 0 0 0 0 -0 -1 -2 -2 -1 -1 -1 -1 -1 -1 -1 -1 -1 -1 -1 -1 -0 1 2 3 5 8 6 4 1 -1 -2 -2 -1 -2 -3 -4 -5 -5 -5 -4 -3 -2 -1 0 1 -0 -0 -0 1 1
-1 -1 -1 -1 -1 -1 -1 -0 0 1 1 0 0 0 0 1 0 0 0 0 0 1 1 1 -0 -1 -2 -2 -2 -2 -1 -1 -1 -1 -1 -1 -1 -1 -1 -0 1 2 3 5 8 7 4 1 -2 -2 -2 -2 -2 -1 -1 -2 -3 -3 -2 -1 -1 -1 -0 0 -0 -0 0 1 1
-1 -1 -1 -1 -1 -1 -1 -0 0 0 0 0 -0 -0 -0 0 -0 -0 -1 -1 -1 -0 0 1 1 -0 -2 -3 -3 -2 -2 -1 -1 -1 -1 -1 -2 -1 -1 -0 1 2 4 6 8 7 5 1 0 -1 -2 -3 -1 0 0 -0 -1 -1 -1 -1 -1 -1 -1 -1 -1 -0 0 1 1
-0 -0 -0 -0 -1 -1 -1 -1 -1 -0 -0 -0 -1 -1 -1 -1 -1 -1 -1 -1 -1 -1 -1 -0 0 1 0 -1 -2 -3 -2 -2 -1 -1 -1 -1 -1 -2 -2 -1 0 2 4 7 8 7 4 3 3 2 -0 -2 -1 0 1 -0 -0 -1 -1 -2 -1 -1 -1 -1 -1 -0 1 1 0
0 0 0 -0 -1 -1 -1 -2 -1 -1 -1 -1 -2 -2 -2 -2 -1 -1 -1 -2 -1 -1 -1 -1 -1 0 1 1 -1 -2 -2 -2 -2 -1 -1 -1 -1 -1 -2 -2 -0 2 4 7 8 7 5 4 5 4 2 -1 -0 0 -0 -1 -1 -1 -1 -1 -1 -2 -1 -1 -1 -0 0 0 -1
1 0 -0 -1 -1 -1 -2 -2 -2 -2 -2 -2 -2 -2 -2 -2 -1 -1 -2 -2 -2 -1 -0 -0 -1 -1 0 1 0 -1 -2 -2 -2 -2 -2 -2 -2 -2 -2 -2 -1 1 4 8 9 7 5 4 7 6 4 2 0 -1 -1 -3 -3 -2 -1 0 -0 -1 -1 -1 -0 0 0 -0 -1
0 -0 -1 -1 -1 -1 -1 -1 -2 -2 -2 -2 -2 -2 -1 -1 -1 -1 -1 -2 -2 -2 -1 -0 -1 -1 -1 -1 -0 -1 -2 -2 -2 -2 -2 -2 -2 -2 -2 -2 -1 1 4 8 9 7 5 5 10 10 7 3 1 -1 -3 -5 -4 -3 -0 2 2 1 -1 -1 0 1 1 0 1
-0 -1 -1 -1 -1 -1 -1 -1 -1 -1 -1 -1 -1 -1 -1 -1 -1 -1 -1 -1 -2 -2 -2 -1 -1 -1 -2 -2 -1 -2 -2 -3 -3 -3 -2 -2 -2 -2 -2 -2 -1 1 4 7 9 8 6 7 12 11 7 2 -1 -3 -4 -5 -4 -2 1 3 5 2 -1 -2 1 2 1 0 1
-1 -1 -1 -1 -1 -1 -0 -0 0 -0 -0 -0 -0 -1 -1 -1 -1 -1 -1 -1 -1 -2 -2 -2 -2 -1 -1 -2 -2 -2 -2 -3 -3 -3 -2 -2 -1 -1 -1 -1 -0 2 4 6 8 8 7 7 11 10 5 -2 -5 -7 -6 -4 -2 -1 1 3 3 1 -1 1 2 1 0 0 0
-1 -1 -1 -1 -1 -0 -0 -0 -0 -0 -0 -0 -1 -1 -1 -1 -2 -2 -2 -2 -2 -2 -2 -2 -2 -2 -2 -2 -2 -2 -2 -2 -3 -3 -3 -2 -1 -1 -1 -1 0 2 4 6 8 7 6 7 12 10 2 -9 -11 -10 -7 -3 -1 -0 0 1 1 1 2 2 1 0 -0 -0 -0
-1 -1 -1 -1 -0 -0 -0 -0 -1 -1 -1 -1 -1 -1 -1 -1 -1 -2 -2 -2 -2 -2 -2 -2 -3 -3 -3 -4 -4 -3 -3 -3 -3 -3 -3 -2 -1 -0 -0 -0 1 3 5 6 7 6 6 8 12 8 -2 -15 -9 -7 -5 -3 -1 0 1 1 2 2 1 0 -0 -1 -1 -0 -1
-0 0 0 0 0 0 -0 -1 -1 -1 -1 -1 -1 -1 -0 -0 -0 -1 -1 -1 -1 -2 -2 -2 -2 -3 -3 -4 -5 -5 -5 -4 -3 -2 -2 -2 -1 -0 0 0 1 3 5 5 6 6 7 9 11 2 -8 -8 -0 -1 -3 -3 -0 1 1 1 1 0 -1 -2 -1 -1 -1 -1 -2
1 1 1 1 0 -0 -1 -1 -1 -1 -1 -1 -1 -0 -0 0 0 0 -0 -0 -1 -1 -1 -2 -2 -2 -2 -3 -4 -5 -5 -5 -4 -2 -1 -1 -0 -0 0 1 2 3 4 5 6 6 7 8 7 -4 -9 10 9 4 -2 -2 0 1 0 0 1 1 -0 -2 -1 -1 -2 -1 3
2 1 0 0 -0 -1 -1 -1 -1 -1 -1 -1 -0 -0 0 0 0 0 0 0 0 -0 -1 -2 -2 -2 -3 -3 -4 -4 -4 -5 -5 -4 -3 -0 0 1 1 1 2 3 3 4 5 5 5 5 -1 -2 7 31 18 6 -1 -0 0 -0 -1 1 3 4 2 0 -0 -1 -1 4 10
1 0 -0 -1 -1 -1 -1 -1 -1 -1 -1 -0 -0 -0 -0 -0 -0 -0 0 0 0 -0 -1 -2 -3 -4 -5 -5 -3 -3 -2 -3 -4 -5 -4 -2 0 1 1 1 2 2 2 2 4 4 4 3 0 12 30 49 22 6 -1 1 0 -0 0 3 7 8 7 3 0 -2 0 10 11
0 -0 -1 -1 -1 -1 -1 -1 -1 -1 -0 -0 -0 -0 -0 -0 0 0 0 0 -0 -1 -1 -2 -4 -5 -5 -4 -3 -3 -3 -3 -4 -4 -4 -3 -1 0 1 1 1 1 1 2 4 4 4 2 4 24 45 54 20 4 -1 1 0 1 4 8 10 11 9 3 -1 -4 -2 6 4
-1 -1 -1 -1 -1 -1 -1 -1 -1 -1 -0 -0 -0 -1 -0 0 1 1 0 -0 -0 -0 -1 -3 -4 -5 -4 -3 -3 -4 -3 -3 -4 -4 -3 -2 -1 0 1 2 2 2 2 3 4 6 6 3 7 27 46 48 13 -0 -2 1 1 4 8 13 14 15 11 -1 -5 -4 -1 -0 -2
-1 -1 -1 -1 -1 -1 -1 -1 -1 -1 -1 -1 -1 -1 -0 1 1 1 1 -0 -0 -1 -2 -3 -4 -3 -3 -4 -4 -4 -3 -3 -3 -3 -2 -0 1 1 2 3 4 4 4 5 6 7 7 4 7 24 40 38 6 -3 -1 1 2 6 10 14 18 18 12 -5 -4 -1 2 0 -1
-1 -1 -1 -1 -1 -1 -1 -1 -1 -1 -1 -1 -1 -0 1 1 1 1 -0 -1 -1 -2 -3 -4 -3 -3 -4 -5 -5 -5 -4 -3 -2 -2 -1 1 1 2 2 4 4 5 7 8 7 6 4 2 3 22 36 24 2 -3 0 3 4 7 12 14 19 18 10 -4 0 2 3 2 1
-1 -1 -1 -1 -1 -1 -1 -1 -1 -1 -1 -1 -1 0 1 2 1 -0 -2 -2 -2 -2 -2 -2 -2 -2 -3 -5 -5 -5 -4 -3 -2 -1 0 1 0 1 3 4 5 7 8 8 5 3 3 1 8 22 27 7 -4 -4 2 5 7 10 13 15 15 11 6 1 4 4 2 1 0
-1 -1 -1 -1 -1 -1 -1 -1 -1 -1 -1 -1 -0 0 1 0 -0 -1 -2 -2 -2 -2 -1 -1 -1 -1 -2 -3 -3 -3 -4 -4 -3 -2 -1 -1 -0 1 2 3 6 9 10 7 3 3 5 8 14 18 13 -4 -9 -4 3 7 10 12 14 13 9 5 3 3 3 2 0 -1 -1
-1 -1 -1 -1 -1 -1 -1 -0 -0 -1 -1 -1 -1 -0 -0 -0 -1 -1 -1 -1 -1 -2 -2 -1 -1 -2 -2 -3 -3 -4 -4 -5 -4 -3 -2 -2 -1 -0 1 4 9 13 13 8 5 9 15 20 12 5 -3 -9 -10 -4 4 10 12 14 15 12 10 7 3 -0 -1 -2 -2 -1 -0
-0 -1 -1 -1 -1 -1 -1 -0 -0 -0 -1 -1 -1 -1 -1 -0 0 1 1 1 -0 -0 -1 -1 -2 -2 -2 -3 -4 -5 -5 -5 -4 -3 -3 -2 -2 -0 3 10 16 18 15 8 10 22 31 24 5 -4 -7 -7 -8 -3 4 11 13 16 17 14 14 12 7 -1 -3 -4 -3 -2 -1
-1 -1 -1 -1 -1 -0 -0 0 -0 -0 -1 -1 -0 -0 -1 -1 -0 1 2 2 2 1 1 -0 -1 0 1 0 -2 -4 -5 -5 -4 -3 -3 -3 -2 3 9 18 20 18 14 10 22 37 39 12 -2 -5 -4 -3 -4 -1 4 12 13 17 20 17 14 10 6 0 -2 -3 -3 -2 -1
-2 -2 -1 -1 0 0 0 -0 -1 -1 -1 -1 -1 -1 -1 -1 -1 0 1 2 2 1 -1 -2 -1 0 1 1 -1 -3 -5 -6 -4 -3 -2 -2 2 8 14 18 16 15 15 18 39 48 37 1 -3 -3 -2 -1 -1 1 5 10 12 17 21 21 19 14 7 2 -1 -2 -0 3 3
-3 -2 -1 -0 0 -0 -1 -1 -1 -1 -1 -1 -1 -1 -1 -1 -1 0 1 1 -1 -3 -5 -6 -5 -3 -1 -1 -2 -5 -6 -6 -4 -3 -2 -1 4 8 10 8 8 9 14 23 51 51 31 -0 -1 -2 -1 -1 -0 2 5 8 10 15 20 21 20 16 10 3 0 -0 2 9 8
-4 -3 -2 -1 -1 -1 -2 -2 -2 -2 -2 -2 -2 -2 -2 -2 -1 0 1 -0 -4 -6 -9 -10 -7 -4 -2 -2 -3 -4 -5 -5 -4 -4 -3 -1 1 2 1 -1 -0 2 8 20 47 47 30 6 1 -1 -1 -1 -0 1 3 5 8 12 15 16 13 11 9 6 4 2 2 4 7
-4 -3 -2 -2 -2 -2 -2 -2 -2 -2 -2 -2 -2 -3 -3 -3 -1 1 0 -2 -5 -8 -10 -10 -6 -3 -1 -2 -3 -3 -3 -3 -3 -3 -3 -3 -3 -4 -5 -5 -2 0 4 12 32 39 33 17 4 -1 -1 -1 -1 0 2 3 6 9 11 11 9 8 6 5 4 3 2 1 4
-4 -3 -2 -2 -2 -2 -2 -2 -2 -2 -2 -2 -3 -3 -3 -1 1 1 0 -2 -5 -8 -8 -5 -1 0 -0 -2 -2 -3 -3 -2 -2 -2 -3 -4 -5 -5 -4 -3 -1 0 2 4 15 24 28 23 8 2 0 -1 -1 -0 1 2 4 6 8 7 6 5 5 5 4 3 3 3 3
-3 -2 -2 -2 -2 -2 -2 -2 -2 -2 -2 -3 -4 -3 -3 -1 1 1 0 -2 -5 -7 -6 -2 2 2 0 -2 -2 -3 -3 -2 -1 -1 -2 -3 -4 -4 -3 -2 -2 -1 -1 -1 1 7 13 20 11 4 0 0 -0 -0 0 1 3 4 6 6 4 3 3 3 3 3 3 2 1
-3 -2 -2 -2 -2 -3 -3 -2 -2 -2 -3 -4 -4 -4 -2 0 2 1 -1 -3 -5 -6 -5 -2 2 2 1 -1 -2 -3 -3 -3 -1 -1 -1 -2 -3 -3 -4 -3 -3 -2 -2 -2 -2 -1 2 7 6 1 -2 0 -0 -0 -0 0 1 3 4 5 4 2 1 1 1 1 1 0 -1
Height
3039 3037 3034 3032 3029 3027 3024 3022 3020 3017 3015 3013 3011 3009 3007 3005 3003 3001 2999 2997 2995 2993 2991 2989 2988 2986 2984 2983 2981 2979 2978 2976 2975 2973 2972 2970 2968 2967 2966 2965 2963 2962 2961 2960 2959 2958 2957 2956 2955 2954 2953 2952 2952 2951 2950 2949 2949 2948 2948 2948 2947 2947 2947 2947 2946 2946 2945 2945 2945
3037 3035 3032 3030 3027 3025 3023 3021 3018 3016 3014 3012 3009 3007 3005 3003 3001 2999 2997 2995 2993 2991 2989 2988 2986 2984 2982 2981 2979 2977 2976 2974 2973 2971 2970 2968 2967 2965 2964 2963 2962 2961 2959 2958 2957 2956 2955 2954 2953 2952 2951 2950 2949 2949 2948 2947 2947 2946 2946 2945 2945 2944 2944 2944 2944 2943 2943 2943 2943
3036 3033 3031 3028 3026 3024 3021 3019 3017 3015 3012 3010 3008 3006 3003 3001 2999 2997 2996 2994 2992 2990 2988 2986 2984 2982 2981 2979 2977 2976 2974 2972 2971 2969 2968 2967 2965 2964 2962 2961 2960 2959 2958 2957 2955 2954 2953 2952 2951 2950 2949 2948 2947 2947 2946 2945 2944 2944 2943 2943 2942 2942 2942 2942 2942 2941 2941 2941 2941
3034 3032 3029 3027 3024 3022 3020 3017 3015 3013 3011 3008 3006 3004 3002 3000 2998 2996 2994 2992 2990 2988 2986 2984 2982 2981 2979 2977 2976 2974 2972 2971 2969 2967 2966 2965 2963 2962 2961 2959 2958 2957 2956 2955 2954 2952 2951 2950 2949 2948 2947 2946 2945 2944 2943 2943 2942 2941 2941 2940 2940 2940 2940 2939 2939 2939 2939 2939 2938
3032 3030 3027 3025 3023 3020 3018 3016 3013 3011 3009 3007 3005 3002 3000 2998 2996 2994 2992 2990 2988 2987 2984 2982 2981 2979 2977 2975 2974 2972 2971 2969 2967 2966 2964 2963 2962 2960 2959 2958 2957 2956 2954 2953 2952 2951 2950 2948 2947 2946 2945 2944 2943 2942 2942 2940 2939 2939 2938 2938 2938 2938 2938 2937 2937 2937 2937 2937 2936
3031 3028 3026 3023 3021 3019 3017 3014 3012 3010 3007 3005 3003 3001 2999 2997 2995 2992 2991 2989 2987 2985 2982 2981 2979 2977 2975 2973 2972 2970 2969 2967 2966 2964 2962 2961 2960 2958 2957 2956 2955 2954 2953 2952 2951 2949 2948 2947 2945 2944 2943 2942 2941 2940 2939 2938 2937 2936 2936 2937 2937 2936 2936 2936 2935 2935 2935 2934 2934
3029 3027 3024 3022 3020 3017 3015 3013 3011 3008 3006 3004 3002 2999 2997 2995 2993 2991 2989 2987 2985 2982 2981 2979 2977 2975 2973 2971 2969 2968 2967 2965 2963 2962 2960 2959 2957 2956 2955 2954 2953 2952 2951 2950 2949 2947 2946 2945 2944 2942 2941 2940 2939 2938 2937 2936 2935 2935 2935 2935 2935 2935 2934 2934 2933 2933 2932 2932 2932
3027 3025 3022 3020 3018 3016 3013 3011 3009 3007 3004 3002 3000 2997 2995 2993 2991 2989 2987 2985 2982 2981 2978 2976 2974 2972 2971 2969 2967 2965 2964 2962 2961 2959 2958 2957 2955 2954 2953 2952 2951 2950 2950 2949 2947 2946 2944 2943 2942 2941 2940 2938 2937 2936 2935 2934 2933 2933 2933 2934 2933 2933 2932 2932 2931 2931 2931 2930 2930
3026 3023 3021 3019 3017 3014 3012 3010 3007 3005 3003 3000 2998 2996 2993 2991 2989 2987 2985 2982 2981 2978 2976 2974 2972 2970 2968 2966 2964 2963 2961 2960 2958 2957 2956 2954 2953 2952 2951 2950 2949 2948 2948 2947 2946 2944 2943 2942 2941 2939 2938 2937 2936 2935 2933 2933 2932 2932 2932 2932 2932 2932 2931 2930 2930 2929 2929 2928 2928
3024 3022 3019 3017 3015 3012 3010 3008 3006 3003 3001 2999 2997 2994 2992 2989 2987 2985 2982 2980 2978 2976 2974 2972 2969 2967 2965 2963 2962 2960 2958 2957 2956 2954 2953 2952 2950 2949 2948 2947 2947 2946 2946 2945 2944 2943 2941 2940 2939 2938 2937 2936 2935 2933 2932 2932 2932 2932 2931 2931 2930 2930 2929 2928 2928 2927 2927 2927 2927
3023 3020 3018 3015 3013 3011 3008 3006 3004 3002 2999 2997 2995 2992 2990 2987 2985 2983 2980 2978 2976 2974 2971 2969 2967 2965 2962 2961 2959 2957 2955 2954 2952 2951 2950 2949 2947 2947 2946 2945 2944 2944 2944 2943 2942 2941 2940 2939 2938 2937 2936 2935 2934 2932 2932 2931 2931 2930 2930 2929 2928 2928 2927 2927 2927 2926 2926 2926 2926
3021 3019 3016 3014 3012 3009 3007 3005 3002 3000 2997 2995 2992 2990 2988 2985 2983 2980 2978 2976 2973 2971 2969 2967 2964 2962 2960 2957 2956 2954 2952 2951 2949 2948 2947 2946 2945 2944 2943 2942 2942 2942 2942 2941 2941 2939 2938 2937 2936 2935 2934 2933 2933 2932 2931 2930 2930 2929 2928 2928 2927 2927 2926 2925 2925 2925 2924 2924 2924
3020 3017 3015 3012 3010 3008 3005 3003 3001 2998 2996 2993 2991 2988 2985 2983 2980 2978 2975 2973 2971 2968 2966 2964 2962 2959 2957 2954 2952 2951 2949 2947 2946 2945 2944 2942 2942 2941 2940 2940 2940 2939 2939 2939 2938 2937 2937 2936 2935 2934 2933 2932 2932 2931 2930 2929 2928 2928 2927 2927 2926 2925 2925 2924 2924 2923 2923 2923 2922
3018 3016 3014 3011 3009 3006 3004 3001 2999 2996 2993 2991 2988 2986 2983 2980 2978 2975 2972 2970 2967 2965 2963 2961 2958 2956 2954 2952 2949 2947 2945 2944 2942 2941 2940 2939 2938 2938 2937 2937 2937 2937 2937 2937 2936 2936 2935 2935 2934 2933 2932 2931 2930 2929 2929 2928 2927 2926 2926 2925 2925 2924 2923 2923 2922 2922 2922 2922 2921
3017 3015 3012 3010 3007 3005 3002 2999 2997 2994 2992 2989 2986 2983 2980 2978 2975 2972 2970 2967 2965 2962 2960 2957 2955 2953 2951 2949 2947 2944 2942 2941 2939 2937 2937 2936 2935 2934 2934 2934 2934 2934 2934 2934 2934 2934 2933 2933 2932 2931 2930 2929 2928 2927 2927 2926 2926 2925 2924 2924 2923 2923 2922 2922 2921 2921 2920 2920 2920
3016 3013 3011 3008 3006 3003 3000 2997 2995 2992 2989 2986 2983 2981 2978 2975 2972 2970 2967 2964 2962 2960 2957 2955 2953 2951 2948 2947 2944 2942 2940 2938 2936 2934 2933 2932 2932 2931 2931 2931 2931 2932 2932 2932 2932 2932 2932 2932 2931 2930 2928 2927 2926 2926 2925 2925 2924 2924 2923 2923 2922 2922 2921 2921 2920 2920 2919 2919 2918
3014 3012 3009 3007 3004 3001 2998 2996 2993 2990 2987 2984 2981 2978 2976 2973 2970 2967 2965 2962 2960 2957 2955 2953 2950 2948 2946 2944 2942 2939 2937 2935 2933 2932 2930 2929 2928 2927 2927 2928 2928 2929 2929 2929 2930 2930 2930 2930 2929 2928 2926 2925 2925 2924 2923 2923 2923 2922 2922 2922 2922 2921 2920 2919 2919 2918 2918 2917 2917
3013 3010 3007 3005 3002 2999 2997 2994 2991 2988 2985 2982 2979 2976 2973 2971 2968 2965 2963 2960 2957 2955 2953 2951 2948 2946 2944 2942 2939 2937 2935 2932 2931 2929 2927 2926 2925 2924 2924 2924 2925 2926 2926 2927 2927 2927 2928 2928 2927 2926 2925 2924 2923 2923 2922 2922 2922 2921 2920 2921 2921 2920 2919 2918 2917 2917 2917 2917 2916
3011 3008 3006 3003 3000 2997 2995 2992 2989 2986 2983 2980 2977 2974 2972 2968 2966 2963 2961 2958 2955 2953 2951 2948 2946 2944 2942 2939 2937 2935 2932 2930 2928 2926 2924 2922 2921 2921 2921 2921 2922 2923 2923 2924 2925 2925 2926 2926 2926 2925 2923 2922 2922 2921 2921 2920 2920 2919 2919 2919 2919 2918 2917 2917 2917 2916 2916 2915 2915
3009 3007 3004 3001 2998 2996 2993 2990 2987 2984 2981 2978 2975 2972 2969 2967 2963 2961 2958 2956 2953 2951 2948 2946 2944 2942 2939 2937 2935 2932 2930 2927 2925 2923 2921 2919 2918 2917 2917 2918 2919 2920 2920 2921 2922 2923 2924 2925 2925 2924 2922 2921 2921 2920 2920 2919 2918 2917 2917 2917 2917 2916 2916 2916 2916 2915 2915 2914 2914
3008 3005 3002 3000 2997 2994 2991 2988 2985 2982 2979 2977 2973 2970 2967 2964 2961 2958 2956 2953 2951 2949 2947 2944 2942 2940 2937 2935 2932 2930 2927 2925 2922 2920 2918 2916 2915 2914 2914 2915 2916 2917 2917 2919 2920 2920 2922 2923 2923 2922 2921 2920 2920 2920 2919 2918 2917 2916 2916 2916 2916 2915 2915 2915 2914 2914 2914 2913 2914
3007 3004 3001 2998 2995 2992 2990 2987 2984 2981 2978 2975 2972 2968 2965 2962 2959 2957 2954 2952 2949 2947 2945 2942 2940 2938 2935 2932 2930 2927 2925 2922 2920 2917 2915 2913 2912 2912 2912 2912 2913 2914 2915 2916 2917 2918 2920 2921 2922 2921 2920 2921 2921 2920 2918 2917 2915 2915 2915 2915 2915 2914 2914 2914 2913 2913 2913 2913 2913
3006 3003 3000 2997 2994 2991 2988 2985 2982 2979 2976 2973 2969 2966 2963 2960 2958 2955 2953 2950 2948 2946 2943 2941 2938 2936 2933 2931 2928 2925 2922 2920 2918 2916 2914 2912 2911 2910 2910 2910 2911 2912 2912 2914 2915 2917 2918 2919 2920 2919 2920 2922 2921 2918 2917 2915 2914 2914 2914 2914 2914 2913 2913 2913 2913 2913 2913 2913 2914
3005 3002 2999 2996 2993 2990 2987 2983 2980 2977 2974 2971 2967 2964 2962 2959 2956 2954 2952 2949 2947 2945 2942 2940 2937 2935 2932 2929 2926 2923 2921 2918 2916 2914 2912 2911 2910 2909 2909 2909 2909 2910 2911 2912 2913 2915 2916 2918 2919 2919 2920 2923 2920 2917 2915 2914 2914 2913 2913 2913 2913 2913 2913 2913 2912 2913 2913 2913 2913
3004 3001 2997 2994 2991 2988 2985 2982 2978 2975 2972 2969 2966 2963 2960 2957 2955 2953 2951 2948 2946 2943 2941 2938 2936 2933 2931 2928 2925 2923 2920 2918 2915 2913 2912 2910 2909 2908 2908 2908 2908 2909 2910 2911 2912 2914 2915 2917 2917 2919 2921 2922 2919 2916 2914 2914 2913 2913 2912 2912 2912 2913 2913 2912 2912 2912 2913 2913 2912
3003 2999 2996 2993 2990 2986 2983 2980 2977 2974 2971 2968 2965 2962 2959 2956 2954 2952 2950 2947 2945 2942 2940 2937 2935 2932 2929 2927 2925 2922 2920 2917 2915 2913 2911 2910 2909 2908 2907 2907 2908 2908 2909 2911 2912 2913 2914 2916 2917 2918 2921 2921 2917 2914 2913 2913 2913 2912 2912 2912 2912 2912 2912 2912 2911 2911 2912 2912 2912
3001 2998 2995 2991 2988 2985 2982 2979 2976 2972 2970 2967 2963 2961 2958 2955 2953 2951 2949 2947 2944 2942 2939 2937 2934 2931 2929 2927 2924 2922 2919 2917 2915 2913 2911 2910 2909 2908 2908 2907 2908 2909 2910 2911 2912 2913 2914 2915 2915 2917 2919 2919 2915 2912 2912 2912 2912 2912 2912 2912 2912 2912 2912 2910 2910 2910 2911 2911 2911
3000 2997 2993 2990 2987 2984 2981 2978 2975 2972 2968 2965 2962 2960 2957 2955 2952 2950 2948 2946 2943 2941 2938 2936 2933 2931 2928 2926 2924 2922 2919 2917 2915 2913 2912 2911 2909 2909 2908 2908 2909 2909 2911 2912 2912 2913 2914 2915 2915 2916 2917 2916 2912 2911 2911 2912 2911 2912 2912 2911 2911 2911 2910 2909 2909 2910 2910 2910 2910
2998 2995 2992 2989 2986 2983 2980 2977 2974 2971 2967 2964 2962 2959 2956 2954 2952 2950 2947 2945 2943 2940 2938 2935 2933 2931 2928 2926 2924 2922 2920 2917 2915 2914 2912 2911 2910 2909 2909 2909 2910 2911 2912 2913 2913 2914 2915 2915 2916 2917 2916 2913 2911 2911 2911 2911 2911 2911 2911 2911 2911 2910 2909 2909 2909 2910 2910 2909 2909
2998 2995 2992 2988 2985 2982 2979 2976 2973 2970 2967 2964 2961 2958 2956 2953 2951 2949 2947 2945 2942 2940 2937 2935 2933 2931 2928 2927 2924 2922 2920 2918 2916 2915 2913 2912 2911 2911 2911 2911 2912 2912 2914 2914 2915 2915 2916 2916 2916 2916 2913 2911 2911 2911 2910 2910 2911 2911 2911 2910 2909 2908 2908 2908 2909 2909 2909 2909 2908
2997 2994 2991 2988 2985 2982 2979 2976 2972 2969 2966 2963 2960 2958 2955 2953 2951 2948 2947 2944 2942 2940 2937 2935 2933 2931 2929 2927 2925 2923 2921 2919 2917 2916 2915 2913 2912 2912 2912 2913 2914 2915 2915 2916 2915 2915 2916 2916 2915 2914 2912 2911 2911 2911 2910 2910 2911 2911 2911 2910 2908 2907 2907 2908 2908 2908 2908 2908 2908
2997 2994 2991 2987 2984 2981 2978 2975 2972 2969 2966 2963 2960 2957 2955 2952 2951 2949 2947 2944 2942 2940 2937 2935 2933 2931 2929 2927 2926 2923 2922 2920 2918 2917 2916 2914 2914 2914 2914 2915 2916 2916 2916 2916 2915 2915 2916 2916 2914 2912 2911 2911 2911 2911 2910 2910 2911 2911 2910 2909 2908 2907 2907 2907 2908 2908 2908 2908 2908
2997 2994 2990 2987 2984 2981 2977 2975 2972 2969 2966 2963 2960 2957 2954 2952 2951 2949 2947 2945 2942 2940 2937 2935 2933 2931 2929 2928 2926 2924 2922 2921 2919 2918 2917 2916 2916 2916 2916 2917 2917 2917 2916 2915 2915 2916 2917 2915 2912 2911 2911 2911 2911 2911 2910 2910 2911 2912 2911 2909 2908 2908 2907 2907 2908 2908 2908 2908 2908
2997 2993 2990 2987 2983 2980 2977 2975 2972 2968 2966 2962 2959 2957 2954 2952 2950 2949 2947 2945 2943 2941 2938 2936 2934 2932 2931 2929 2927 2925 2923 2922 2920 2919 2918 2918 2917 2917 2917 2917 2917 2916 2915 2915 2915 2917 2917 2912 2911 2910 2910 2910 2911 2911 2911 2911 2912 2912 2911 2910 2909 2908 2907 2907 2908 2908 2908 2908 2908
2996 2993 2990 2987 2984 2981 2977 2974 2971 2968 2965 2962 2959 2956 2954 2952 2951 2949 2947 2946 2943 2941 2938 2936 2935 2933 2931 2930 2928 2926 2924 2922 2922 2921 2920 2919 2919 2919 2918 2917 2917 2916 2915 2915 2918 2918 2915 2911 2910 2910 2910 2910 2910 2910 2911 2911 2912 2913 2912 2911 2909 2908 2908 2908 2908 2908 2909 2909 2908
2996 2993 2990 2987 2984 2981 2977 2974 2971 2967 2964 2961 2958 2956 2954 2952 2951 2950 2948 2946 2943 2941 2939 2937 2935 2933 2932 2930 2928 2927 2925 2924 2923 2922 2922 2921 2920 2919 2918 2917 2917 2916 2915 2916 2919 2918 2914 2911 2911 2910 2910 2909 2910 2910 2911 2911 2912 2912 2912 2911 2909 2908 2908 2908 2908 2908 2908 2910 2909
2996 2993 2990 2987 2984 2980 2977 2973 2970 2967 2963 2961 2958 2956 2954 2952 2951 2950 2948 2946 2943 2941 2939 2937 2936 2934 2932 2931 2929 2928 2926 2925 2924 2924 2923 2922 2921 2920 2919 2917 2917 2915 2915 2916 2918 2918 2916 2912 2911 2911 2910 2910 2910 2910 2910 2911 2911 2911 2911 2911 2909 2908 2908 2908 2908 2907 2907 2907 2908
2996 2993 2990 2987 2983 2980 2976 2973 2969 2966 2963 2961 2958 2957 2955 2953 2952 2950 2948 2946 2943 2941 2939 2938 2936 2935 2933 2932 2930 2929 2928 2927 2926 2925 2925 2924 2922 2921 2920 2918 2917 2916 2915 2916 2917 2917 2917 2915 2912 2911 2911 2910 2910 2910 2910 2910 2910 2910 2910 2910 2909 2909 2908 2908 2908 2907 2907 2907 2907
2997 2993 2990 2987 2983 2980 2976 2972 2969 2966 2963 2961 2959 2957 2955 2954 2952 2951 2949 2946 2944 2942 2940 2939 2937 2936 2934 2933 2932 2930 2929 2928 2927 2927 2926 2925 2924 2922 2921 2920 2919 2918 2917 2916 2916 2916 2916 2916 2913 2912 2912 2911 2911 2911 2911 2910 2910 2910 2909 2909 2909 2909 2908 2908 2908 2907 2907 2907 2907
2997 2994 2991 2987 2983 2980 2976 2973 2970 2967 2964 2962 2959 2957 2956 2955 2953 2952 2949 2947 2945 2943 2942 2940 2939 2937 2936 2934 2933 2932 2931 2930 2929 2928 2927 2926 2925 2924 2923 2922 2921 2920 2918 2917 2916 2916 2916 2916 2914 2913 2912 2912 2911 2911 2911 2911 2910 2910 2909 2909 2908 2908 2908 2908 2907 2907 2907 2907 2907
2997 2994 2991 2987 2983 2980 2976 2973 2970 2967 2965 2962 2960 2958 2957 2956 2954 2952 2950 2948 2946 2944 2942 2941 2940 2938 2937 2935 2934 2932 2932 2931 2930 2929 2928 2927 2926 2925 2924 2923 2922 2921 2920 2919 2917 2917 2916 2916 2915 2914 2913 2912 2912 2912 2911 2911 2910 2910 2909 2909 2908 2908 2907 2907 2907 2907 2907 2907 2906